Retour au catalogue

ONEWEB-0200

ActifCommunicationsPO
NORAD 48244·PAYLOAD·🇬🇧 United Kingdom

Lancé Apr 25, 2021 depuis Vostochny Cosmodrome

Loading…

Prochains Passages (prochaines 24 heures)

TLE

FraisSource: CelesTrak SupGP

Époque: Sep 14, 2026, 13:59 UTC

1 48244C 21031AL  26257.58312917 -.00000128  00000+0 -34637-3 0  2572
2 48244  87.8909 271.8729 0001692  97.0699   2.2269 13.14507499    14

Suivez ONEWEB-0200 en temps réel avec AllMySat

Download on the App Store